Flag for Canada Weather past 2 weeks in St. Catharines, Ontario, Canada

Now
32 °F

Light snow. Mostly cloudy.


Feels Like: 23 °F
Forecast: 15 / 33 °F
Wind: 12 mph from Southwest

Location: Saint Catharines Airport

Current Time: Jan 24, 2015 at 11:29:17 PM

Latest Report: Jan 24, 2015 at 9:00 PM


Visibility: 2 mi

Pressure: 29.53 "Hg

Humidity: 87%

Dew point: 28 °F

Location of St. CatharinesLocation

Historic Weather in St. Catharines — Graph

°F

St. Catharines temperature yesterday

Maximum temperature yesterday: 30 °F (at 12:00 PM)
Minimum temperature yesterday: 27 °F (at 7:00 AM)
Average temperature yesterday: 28 °F

Past Weeks' High & Low Weather Summary

 TemperatureHumidityPressure
High45 °F (Jan 18, 7:00 AM)100% (Jan 12, 9:00 AM)30.82 "Hg (Jan 12, 9:00 AM)
Low-6 °F (Jan 14, 8:00 AM)44% (Jan 22, 2:00 PM)29.50 "Hg (Jan 24, 3:00 PM)
Average24 °F70%30.13 "Hg
* Reported Jan 9 9:00 PM — Jan 24 9:00 PM, St. Catharines, Weather by CustomWeather, © 2014

Note: Actual official high and low records may vary slightly from our data, if they occured in-between our weather recording intervals... More about our weather records

Advertising

St. Catharines weather history for previous 24 hours

 ConditionsComfort  
Time TempWeatherWind HumidityBarometerVisibility
9:00 PM
Jan 24
32 °FLight snow. Mostly cloudy.12 mph87%29.53 "Hg2 mi
8:48 PM32 °FLight snow. Mostly cloudy.13 mph87%29.53 "Hg2 mi
8:00 PM30 °FLight snow. Low clouds.12 mph93%29.53 "Hg4 mi
7:00 PM30 °FLight snow. Overcast.12 mph93%29.53 "Hg4 mi
6:00 PM30 °FLight freezing rain. Ice fog.12 mph93%29.52 "Hg2 mi
5:00 PM30 °FLight freezing rain. Ice fog.12 mph93%29.51 "Hg2 mi
4:00 PM30 °FLight freezing rain. Ice fog.9 mph93%29.50 "Hg3 mi
3:00 PM30 °FLight freezing rain. Ice fog.13 mph86%29.50 "Hg5 mi
2:00 PM30 °FLight freezing rain. Ice fog.12 mph86%29.51 "Hg5 mi
1:00 PM30 °FIce fog.10 mph86%29.53 "Hg6 mi
12:00 PM28 °FIce fog.15 mph86%29.58 "Hg5 mi
11:00 AM28 °FOvercast.14 mph86%29.60 "Hg8 mi
10:00 AM28 °FOvercast.13 mph80%29.61 "Hg8 mi
9:00 AM25 °FOvercast.10 mph86%29.64 "Hg10 mi
8:00 AM23 °FOvercast.10 mph86%29.66 "Hg8 mi
7:00 AM23 °FOvercast.12 mph86%29.68 "Hg15 mi
Weather by CustomWeather, © 2014

See weather overviewHow to use our weather pages